Valley International Airport Harlingen US
ICAO: KHRL
IATA: HRL
Category: Medium
Scheduled Services: Yes

Elevation: 36 ft
TransAlt. 18000 ft.

Airport Communications:
APP/DEP:120.7
ATIS:124.85
CTAF:119.3
GND:121.7
SAN ANGELO RDO:122.35
TWR:119.3
UNICOM:122.95

KHRL Zoom In..

If you have problems with the map follow the link
https://www.worldairports.se/pages/airport.php?
ICAO=KHRL

Runways:

(A) RW 13 length 7257 ft width 150 ft
---- / hdg 131

(B) RW 17L length 5949 ft width 150 ft
---- / hdg 176

(C) RW 17R length 8301 ft width 150 ft
ILS 111.50 / hdg 176

(D) RW 31 length 7257 ft width 150 ft
---- / hdg 311

(E) RW 35L length 8301 ft width 150 ft
---- / hdg 356

(F) RW 35R length 5949 ft width 150 ft
---- / hdg 356

Location; KHRL
Day. 14 / Time. 10.52 Zulu
* Altimeter: 30.54
* Temperature: 01° c. 33.8°f.
* Wind from: 270° Speed 08 kn.
Dewpoint: -02° c.
Visibility: 10 Statute Miles.
Clouds: Clear (automated report).

KHRL 141052Z AUTO 27008KT 10SM CLR 01/M02 A3054 RMK AO2 SLP342 T00111017


Wind From 270°
Speed 08 kn.

 
 
jpsmedia.com for Web Design worldairports.se 2018   terms of use